Time,TemperatureF,DewpointF,PressureIn,WindDirection,WindDirectionDegrees,WindSpeedMPH,WindSpeedGustMPH,Humidity,HourlyPrecipIn,Conditions,Clouds,dailyrainin,SoftwareType,DateUTC
2013-01-24 00:03:00,25.0,21.0,-100.00,ESE,116,2.0,4.0,84,0.00,,,0.00,,2013-01-24 05:03:00,
2013-01-24 00:12:00,25.0,21.0,-100.00,ESE,116,2.0,4.0,84,0.00,,,0.00,,2013-01-24 05:12:00,
2013-01-24 00:33:00,27.0,23.0,-100.00,East,92,2.0,4.0,83,0.00,,,0.00,,2013-01-24 05:33:00,
2013-01-24 00:43:00,27.0,23.0,-100.00,East,92,2.0,4.0,83,0.00,,,0.00,,2013-01-24 05:43:00,
2013-01-24 00:53:00,27.0,23.0,-100.00,East,92,2.0,4.0,83,0.00,,,0.00,,2013-01-24 05:53:00,
2013-01-24 01:03:00,27.0,23.0,-100.00,East,92,2.0,4.0,83,0.00,,,0.00,,2013-01-24 06:03:00,
2013-01-24 01:12:00,27.0,23.0,-100.00,East,92,2.0,4.0,83,0.00,,,0.00,,2013-01-24 06:12:00,
2013-01-24 01:42:00,33.0,19.0,-100.00,SE,132,3.0,20.0,57,0.00,,,0.00,,2013-01-24 06:42:00,
2013-01-24 01:53:00,33.0,19.0,-100.00,SE,132,3.0,20.0,57,0.00,,,0.00,,2013-01-24 06:53:00,
2013-01-24 02:03:00,33.0,19.0,-100.00,SE,132,3.0,20.0,57,0.00,,,0.00,,2013-01-24 07:03:00,
2013-01-24 02:12:00,33.0,19.0,-100.00,SE,132,3.0,20.0,57,0.00,,,0.00,,2013-01-24 07:12:00,
2013-01-24 02:34:00,31.0,17.0,-100.00,WSW,248,4.0,18.0,55,0.00,,,0.00,,2013-01-24 07:34:00,
2013-01-24 02:43:00,31.0,17.0,-100.00,WSW,248,4.0,18.0,55,0.00,,,0.00,,2013-01-24 07:43:00,
2013-01-24 02:53:00,31.0,17.0,-100.00,WSW,248,4.0,18.0,55,0.00,,,0.00,,2013-01-24 07:53:00,
2013-01-24 03:03:00,31.0,17.0,-100.00,WSW,248,4.0,18.0,55,0.00,,,0.00,,2013-01-24 08:03:00,
2013-01-24 03:12:00,31.0,17.0,-100.00,WSW,248,4.0,18.0,55,0.00,,,0.00,,2013-01-24 08:12:00,
2013-01-24 03:43:00,30.0,17.0,-100.00,WNW,287,4.0,11.0,57,0.00,,,0.00,,2013-01-24 08:43:00,
2013-01-24 03:53:00,30.0,17.0,-100.00,WNW,287,4.0,11.0,57,0.00,,,0.00,,2013-01-24 08:53:00,
2013-01-24 04:03:00,30.0,17.0,-100.00,WNW,287,4.0,11.0,57,0.00,,,0.00,,2013-01-24 09:03:00,
2013-01-24 04:13:00,30.0,17.0,-100.00,WNW,287,4.0,11.0,57,0.00,,,0.00,,2013-01-24 09:13:00,
2013-01-24 04:43:00,29.0,17.0,-100.00,NW,306,5.0,16.0,60,0.00,,,0.00,,2013-01-24 09:43:00,
2013-01-24 04:53:00,29.0,17.0,-100.00,NW,306,5.0,16.0,60,0.00,,,0.00,,2013-01-24 09:53:00,
2013-01-24 05:03:00,29.0,17.0,-100.00,NW,306,5.0,16.0,60,0.00,,,0.00,,2013-01-24 10:03:00,
2013-01-24 05:12:00,29.0,17.0,-100.00,NW,306,5.0,16.0,60,0.00,,,0.00,,2013-01-24 10:12:00,
2013-01-24 05:43:00,26.0,14.0,-100.00,SSW,207,5.0,17.0,59,0.00,,,0.00,,2013-01-24 10:43:00,
2013-01-24 05:53:00,26.0,14.0,-100.00,SSW,207,5.0,17.0,59,0.00,,,0.00,,2013-01-24 10:53:00,
2013-01-24 06:03:00,26.0,14.0,-100.00,SSW,207,5.0,17.0,59,0.00,,,0.00,,2013-01-24 11:03:00,
2013-01-24 06:12:00,26.0,14.0,-100.00,SSW,207,5.0,17.0,59,0.00,,,0.00,,2013-01-24 11:12:00,
2013-01-24 06:43:00,22.0,8.0,-100.00,West,267,4.0,14.0,55,0.00,,,0.00,,2013-01-24 11:43:00,
2013-01-24 06:53:00,22.0,8.0,-100.00,West,267,4.0,14.0,55,0.00,,,0.00,,2013-01-24 11:53:00,
2013-01-24 07:03:00,22.0,8.0,-100.00,West,267,4.0,14.0,55,0.00,,,0.00,,2013-01-24 12:03:00,
2013-01-24 07:12:00,22.0,8.0,-100.00,West,267,4.0,14.0,55,0.00,,,0.00,,2013-01-24 12:12:00,
2013-01-24 07:43:00,20.0,4.0,-100.00,West,281,2.0,9.0,49,0.00,,,0.00,,2013-01-24 12:43:00,
2013-01-24 07:53:00,20.0,4.0,-100.00,West,281,2.0,9.0,49,0.00,,,0.00,,2013-01-24 12:53:00,
2013-01-24 08:03:00,20.0,4.0,-100.00,West,281,2.0,9.0,49,0.00,,,0.00,,2013-01-24 13:03:00,
2013-01-24 08:13:00,20.0,4.0,-100.00,West,281,2.0,9.0,49,0.00,,,0.00,,2013-01-24 13:13:00,
2013-01-24 08:43:00,18.0,5.0,-100.00,West,274,2.0,7.0,55,0.00,,,-99.99,,2013-01-24 13:43:00,
2013-01-24 08:53:00,18.0,5.0,-100.00,West,274,2.0,7.0,55,0.00,,,-99.99,,2013-01-24 13:53:00,
2013-01-24 09:03:00,18.0,5.0,-100.00,West,274,2.0,7.0,55,0.00,,,-99.99,,2013-01-24 14:03:00,
2013-01-24 09:12:00,18.0,5.0,-100.00,West,274,2.0,7.0,55,0.00,,,-99.99,,2013-01-24 14:12:00,
2013-01-24 09:43:00,20.0,4.0,-100.00,SSW,196,4.0,10.0,50,0.00,,,0.00,,2013-01-24 14:43:00,
2013-01-24 09:54:00,20.0,4.0,-100.00,SSW,196,4.0,10.0,50,0.00,,,0.00,,2013-01-24 14:54:00,
2013-01-24 10:04:00,20.0,4.0,-100.00,SSW,196,4.0,10.0,50,0.00,,,0.00,,2013-01-24 15:04:00,
2013-01-24 10:13:00,20.0,4.0,-100.00,SSW,196,4.0,10.0,50,0.00,,,0.00,,2013-01-24 15:13:00,
2013-01-24 10:43:00,23.0,4.0,-100.00,SSW,205,5.0,10.0,43,0.00,,,0.00,,2013-01-24 15:43:00,
2013-01-24 10:53:00,23.0,4.0,-100.00,SSW,205,5.0,10.0,43,0.00,,,0.00,,2013-01-24 15:53:00,
2013-01-24 11:04:00,23.0,4.0,-100.00,SSW,205,5.0,10.0,43,0.00,,,0.00,,2013-01-24 16:04:00,
2013-01-24 11:12:00,23.0,4.0,-100.00,SSW,205,5.0,10.0,43,0.00,,,0.00,,2013-01-24 16:12:00,
2013-01-24 11:33:00,25.0,1.0,-100.00,South,170,8.0,14.0,35,0.00,,,0.00,,2013-01-24 16:33:00,
2013-01-24 11:43:00,25.0,1.0,-100.00,South,170,8.0,14.0,35,0.00,,,0.00,,2013-01-24 16:43:00,
2013-01-24 12:03:00,25.0,1.0,-100.00,South,170,8.0,14.0,35,0.00,,,0.00,,2013-01-24 17:03:00,
2013-01-24 12:12:00,25.0,1.0,-100.00,South,170,8.0,14.0,35,0.00,,,0.00,,2013-01-24 17:12:00,
2013-01-24 12:43:00,28.0,-2.0,-100.00,SSW,203,5.0,14.0,26,0.00,,,0.00,,2013-01-24 17:43:00,
2013-01-24 12:53:00,28.0,-2.0,-100.00,SSW,203,5.0,14.0,26,0.00,,,0.00,,2013-01-24 17:53:00,
2013-01-24 13:03:00,28.0,-2.0,-100.00,SSW,203,5.0,14.0,26,0.00,,,0.00,,2013-01-24 18:03:00,
2013-01-24 13:12:00,28.0,-2.0,-100.00,SSW,203,5.0,14.0,26,0.00,,,0.00,,2013-01-24 18:12:00,
2013-01-24 13:43:00,28.0,-6.0,-100.00,West,269,5.0,11.0,22,0.00,,,0.00,,2013-01-24 18:43:00,
2013-01-24 13:53:00,28.0,-6.0,-100.00,West,269,5.0,11.0,22,0.00,,,0.00,,2013-01-24 18:53:00,
2013-01-24 14:02:00,28.0,-6.0,-100.00,West,269,5.0,11.0,22,0.00,,,0.00,,2013-01-24 19:02:00,
2013-01-24 14:12:00,28.0,-6.0,-100.00,West,269,5.0,11.0,22,0.00,,,0.00,,2013-01-24 19:12:00,
2013-01-24 14:42:00,28.0,-5.0,-100.00,SSE,163,8.0,15.0,23,0.00,,,0.00,,2013-01-24 19:42:00,
2013-01-24 14:53:00,28.0,-5.0,-100.00,SSE,163,8.0,15.0,23,0.00,,,0.00,,2013-01-24 19:53:00,
2013-01-24 15:02:00,28.0,-5.0,-100.00,SSE,163,8.0,15.0,23,0.00,,,0.00,,2013-01-24 20:02:00,
2013-01-24 15:12:00,28.0,-5.0,-100.00,SSE,163,8.0,15.0,23,0.00,,,0.00,,2013-01-24 20:12:00,
2013-01-24 16:43:00,27.0,-5.0,-100.00,South,174,4.0,12.0,24,-99.99,,,0.00,,2013-01-24 21:43:00,
2013-01-24 16:53:00,27.0,-5.0,-100.00,South,174,4.0,12.0,24,-99.99,,,0.00,,2013-01-24 21:53:00,
2013-01-24 17:03:00,27.0,-5.0,-100.00,South,174,4.0,12.0,24,-99.99,,,0.00,,2013-01-24 22:03:00,
2013-01-24 17:12:00,27.0,-5.0,-100.00,South,174,4.0,12.0,24,-99.99,,,0.00,,2013-01-24 22:12:00,
2013-01-24 17:42:00,25.0,-8.0,-100.00,SSE,165,4.0,10.0,23,0.00,,,0.00,,2013-01-24 22:42:00,
2013-01-24 17:53:00,25.0,-8.0,-100.00,SSE,165,4.0,10.0,23,0.00,,,0.00,,2013-01-24 22:53:00,
2013-01-24 18:03:00,25.0,-8.0,-100.00,SSE,165,4.0,10.0,23,0.00,,,0.00,,2013-01-24 23:03:00,
2013-01-24 18:12:00,25.0,-8.0,-100.00,SSE,165,4.0,10.0,23,0.00,,,0.00,,2013-01-24 23:12:00,
2013-01-24 18:43:00,23.0,-7.0,-100.00,SE,126,3.0,8.0,26,0.00,,,0.00,,2013-01-24 23:43:00,
2013-01-24 18:52:00,23.0,-7.0,-100.00,SE,126,3.0,8.0,26,0.00,,,0.00,,2013-01-24 23:52:00,
2013-01-24 19:02:00,23.0,-7.0,-100.00,SE,126,3.0,8.0,26,0.00,,,0.00,,2013-01-25 00:02:00,
2013-01-24 19:12:00,23.0,-7.0,-100.00,SE,126,3.0,8.0,26,0.00,,,0.00,,2013-01-25 00:12:00,
2013-01-24 19:32:00,20.0,3.0,-100.00,ENE,77,1.0,3.0,46,0.00,,,0.00,,2013-01-25 00:32:00,
2013-01-24 19:42:00,20.0,3.0,-100.00,ENE,77,1.0,3.0,46,0.00,,,0.00,,2013-01-25 00:42:00,
2013-01-24 19:53:00,20.0,3.0,-100.00,ENE,77,1.0,3.0,46,0.00,,,0.00,,2013-01-25 00:53:00,
2013-01-24 20:02:00,20.0,3.0,-100.00,ENE,77,1.0,3.0,46,0.00,,,0.00,,2013-01-25 01:02:00,
2013-01-24 20:12:00,20.0,3.0,-100.00,ENE,77,1.0,3.0,46,0.00,,,0.00,,2013-01-25 01:12:00,
2013-01-24 20:32:00,19.0,5.0,-100.00,ESE,103,2.0,4.0,53,0.00,,,0.00,,2013-01-25 01:32:00,
2013-01-24 20:43:00,19.0,5.0,-100.00,ESE,103,2.0,4.0,53,0.00,,,0.00,,2013-01-25 01:43:00,
2013-01-24 20:52:00,19.0,5.0,-100.00,ESE,103,2.0,4.0,53,0.00,,,0.00,,2013-01-25 01:52:00,
2013-01-24 21:03:00,19.0,5.0,-100.00,ESE,103,2.0,4.0,53,0.00,,,0.00,,2013-01-25 02:03:00,
2013-01-24 21:12:00,19.0,5.0,-100.00,ESE,103,2.0,4.0,53,0.00,,,0.00,,2013-01-25 02:12:00,
2013-01-24 21:43:00,19.0,3.0,-100.00,East,93,2.0,4.0,50,0.00,,,0.00,,2013-01-25 02:43:00,
2013-01-24 21:53:00,19.0,3.0,-100.00,East,93,2.0,4.0,50,0.00,,,0.00,,2013-01-25 02:53:00,
2013-01-24 22:02:00,19.0,3.0,-100.00,East,93,2.0,4.0,50,0.00,,,0.00,,2013-01-25 03:02:00,
2013-01-24 22:12:00,19.0,3.0,-100.00,East,93,2.0,4.0,50,0.00,,,0.00,,2013-01-25 03:12:00,
2013-01-24 22:42:00,21.0,2.0,-100.00,SE,126,3.0,6.0,42,0.00,,,0.00,,2013-01-25 03:42:00,
2013-01-24 22:53:00,21.0,2.0,-100.00,SE,126,3.0,6.0,42,0.00,,,0.00,,2013-01-25 03:53:00,
2013-01-24 23:02:00,21.0,2.0,-100.00,SE,126,3.0,6.0,42,0.00,,,0.00,,2013-01-25 04:02:00,
2013-01-24 23:12:00,21.0,2.0,-100.00,SE,126,3.0,6.0,42,0.00,,,0.00,,2013-01-25 04:12:00,
2013-01-24 23:32:00,20.0,1.0,-100.00,East,83,2.0,6.0,42,0.00,,,0.00,,2013-01-25 04:32:00,
2013-01-24 23:42:00,20.0,1.0,-100.00,East,83,2.0,6.0,42,0.00,,,0.00,,2013-01-25 04:42:00,
2013-01-24 23:52:00,20.0,1.0,-100.00,East,83,2.0,6.0,42,0.00,,,0.00,,2013-01-25 04:52:00,